FW3988 Weather Reports


time (UTC)temp
C
wind
direction
speed
KPH
gust
KPH
rain 1hr
cm
rain 24hr
cm
rain mn
cm
humidity
%
barometer
mb
20260508000147 28 266 16.1 33.8 0.00 0.00 0.00 53 1008.7
20260507234525 28 313 16.1 40.2 0.00 0.00 0.00 51 1008.4
20260507233002 28 304 20.9 41.8 0.00 0.00 0.00 51 1008.5
20260507231552 29 263 14.5 32.2 0.00 0.00 0.00 49 1008.5
20260507230008 30 271 16.1 27.4 0.00 0.00 0.00 47 1008.5
20260507224555 29 313 17.7 29.0 0.00 0.00 0.00 51 1008.5
20260507223028 28 296 19.3 37.0 0.00 0.00 0.00 57 1008.8
20260507221501 29 257 14.5 30.6 0.00 0.00 0.00 56 1008.8
20260507220139 30 266 16.1 27.4 0.00 0.00 0.00 51 1008.9
20260507214514 30 286 14.5 30.6 0.00 0.00 0.00 47 1009.1
20260507213111 30 276 14.5 27.4 0.00 0.00 0.00 49 1009.1
20260507211554 30 273 14.5 27.4 0.00 0.00 0.00 49 1009.2
20260507210009 31 292 14.5 24.1 0.00 0.00 0.00 44 1009.3
20260507204604 31 267 12.9 24.1 0.00 0.00 0.00 44 1009.7
20260507203106 31 271 11.3 22.5 0.00 0.00 0.00 44 1009.9
20260507201541 31 262 8.0 17.7 0.00 0.00 0.00 41 1009.9
20260507200139 31 256 11.3 22.5 0.00 0.00 0.00 44 1010.4
20260507194526 30 236 11.3 20.9 0.00 0.00 0.00 50 1010.6
20260507193015 30 288 12.9 22.5 0.00 0.00 0.00 52 1010.9
20260507191604 30 253 9.7 16.1 0.00 0.00 0.00 56 1010.9
20260507190016 30 255 8.0 17.7 0.00 0.00 0.00 53 1011.2
20260507184612 30 281 8.0 17.7 0.00 0.00 0.00 52 1011.3
20260507183104 31 236 9.7 16.1 0.00 0.00 0.00 57 1011.4
20260507181537 31 228 4.8 11.3 0.00 0.00 0.00 53 1011.4
20260507180131 30 279 6.4 14.5 0.00 0.00 0.00 55 1011.6
20260507174522 30 252 6.4 14.5 0.00 0.00 0.00 53 1011.7
20260507173009 30 246 6.4 12.9 0.00 0.00 0.00 57 1011.8
20260507171610 29 288 8.0 14.5 0.00 0.00 0.00 58 1011.8
20260507170018 29 254 8.0 16.1 0.00 0.00 0.00 63 1011.8
20260507164611 29 240 4.8 12.9 0.00 0.00 0.00 66 1011.7
20260507163047 28 283 1.6 4.8 0.00 0.00 0.00 64 1011.9
20260507161541 28 229 1.6 11.3 0.00 0.00 0.00 62 1011.9
20260507160133 27 286 4.8 11.3 0.00 0.00 0.00 63 1011.9
20260507154547 27 218 1.6 11.3 0.00 0.00 0.00 68 1011.8
20260507153049 27 223 6.4 12.9 0.00 0.00 0.00 66 1012.0
20260507151541 26 230 6.4 12.9 0.00 0.00 0.00 67 1011.8
20260507150011 26 251 4.8 11.3 0.00 0.00 0.00 65 1011.7
20260507144511 26 347 0.0 3.2 0.00 0.00 0.00 64 1011.4
20260507143106 25 360 0.0 4.8 0.00 0.00 0.00 65 1011.2
20260507141558 25 37 1.6 6.4 0.00 0.00 0.00 66 1011.0
20260507140023 24 29 3.2 6.4 0.00 0.00 0.00 68 1010.9
20260507134526 23 11 1.6 6.4 0.00 0.00 0.00 71 1011.0
20260507133100 23 9 1.6 6.4 0.00 0.00 0.00 73 1010.9
20260507131558 23 25 1.6 6.4 0.00 0.00 0.00 75 1010.8
20260507130136 22 20 4.8 6.4 0.00 0.00 0.00 78 1010.6
20260507124518 22 48 1.6 6.4 0.00 0.00 0.00 79 1010.7
20260507123000 22 27 1.6 4.8 0.00 0.00 0.00 79 1010.6
20260507121558 22 29 3.2 4.8 0.00 0.00 0.00 78 1010.6
20260507120145 22 30 1.6 4.8 0.00 0.00 0.00 78 1010.6
20260507114534 23 21 1.6 4.8 0.00 0.00 0.00 78 1010.6
20260507113018 23 21 1.6 4.8 0.00 0.00 0.00 78 1010.6
20260507111555 23 99 0.0 3.2 0.00 0.00 0.00 78 1010.4
20260507110134 23 99 0.0 3.2 0.00 0.00 0.00 78 1010.2
20260507104546 23 99 0.0 3.2 0.00 0.00 0.00 78 1010.2
20260507103030 23 209 0.0 3.2 0.00 0.00 0.00 79 1010.1
20260507101507 23 209 0.0 1.6 0.00 0.00 0.00 80 1010.1
20260507100143 23 209 0.0 1.6 0.00 0.00 0.00 78 1010.1
20260507094539 23 100 0.0 3.2 0.00 0.00 0.00 78 1010.0
20260507093024 23 100 0.0 6.4 0.00 0.00 0.00 79 1010.0
20260507091507 23 142 0.0 4.8 0.00 0.00 0.00 84 1010.1
20260507090157 24 16 0.0 4.8 0.00 0.00 0.00 82 1010.3
20260507084554 23 5 0.0 3.2 0.00 0.00 0.00 82 1010.4
20260507083025 23 5 0.0 3.2 0.00 0.00 0.00 82 1010.5
20260507081508 24 5 1.6 4.8 0.00 0.00 0.00 82 1010.5
20260507080140 23 311 0.0 0.0 0.00 0.00 0.00 84 1010.7
20260507074527 23 311 0.0 3.2 0.00 0.00 0.00 83 1011.1
20260507064517 24 9 0.0 6.4 0.00 0.00 0.00 81 1011.5
20260507063006 24 338 1.6 4.8 0.00 0.00 0.00 82 1011.5
20260507061554 24 350 1.6 6.4 0.00 0.00 0.00 82 1011.7
20260507060137 24 319 0.0 6.4 0.00 0.00 0.00 81 1011.8
20260507054521 25 329 3.2 6.4 0.00 0.00 0.00 80 1011.9
20260507053008 25 327 1.6 6.4 0.00 0.00 0.00 79 1012.0
20260507051557 25 329 1.6 6.4 0.00 0.00 0.00 78 1011.9
20260507050022 25 315 3.2 6.4 0.00 0.00 0.00 77 1011.9
20260507044510 25 302 3.2 12.9 0.00 0.00 0.00 76 1011.9
20260507043059 25 293 4.8 16.1 0.00 0.00 0.00 74 1011.9
20260507041549 25 312 1.6 11.3 0.00 0.00 0.00 72 1011.9
20260507040133 26 302 6.4 16.1 0.00 0.00 0.00 71 1011.8
20260507034551 26 286 4.8 12.9 0.00 0.00 0.00 72 1011.9
20260507033008 26 287 9.7 17.7 0.00 0.00 0.00 74 1011.8
20260507031559 26 330 4.8 16.1 0.00 0.00 0.00 75 1011.7
20260507030138 26 292 9.7 17.7 0.00 0.00 0.00 75 1011.5
20260507024534 26 288 8.0 16.1 0.00 0.00 0.00 75 1011.4
20260507023002 26 267 9.7 20.9 0.00 0.00 0.00 75 1011.4
20260507021601 26 295 8.0 16.1 0.00 0.00 0.00 75 1011.3
20260507020028 26 275 14.5 24.1 0.00 0.00 0.00 75 1011.3
20260507014531 26 275 9.7 19.3 0.00 0.00 0.00 74 1011.3
20260507013007 26 242 6.4 17.7 0.00 0.00 0.00 72 1011.1
20260507011553 26 294 11.3 19.3 0.00 0.00 0.00 72 1011.0
20260507010137 27 301 9.7 19.3 0.00 0.00 0.00 72 1010.9
20260507004512 27 268 9.7 22.5 0.00 0.00 0.00 72 1010.8
20260507003014 27 289 12.9 24.1 0.00 0.00 0.00 71 1010.8
20260507001602 27 287 14.5 24.1 0.00 0.00 0.00 69 1010.7